User: anonymous   Login
Location: Bittelbronn
(48.4454°N, 8.5870°E)
Time: 18:21:42
(UTC+00:00)
Language:

Cosmos 2278 - Orbit

View from above orbital plane
View from above orbital plane
View from above satellite
View from above satellite

Ground track
Ground track

The orbit data is extracted from the following two-line orbital elements,

1 23087U 94023A   24200.52310851  .00000588  00000-0  33361-3 0  9991
2 23087  71.0549 348.4551 0010223 230.3896 129.6325 14.14112102560340
Epoch (UTC): 18 July 2024 12:33:16
Eccentricity: 0.0010223
inclination: 71.0549°
perigee height: 838 km
apogee height: 853 km
right ascension of ascending node: 348.4551°
argument of perigee: 230.3896°
revolutions per day: 14.14112102
mean anomaly at epoch: 129.6325°
orbit number at epoch: 56034

The dashed part of the orbit path shows where the satellite is in the earth's shadow,  

DLR